KL-BETA B (49060 NORAD) Tracking and Keplerian Element Data

This shows tracking and keplerian element data for the satellite.

Feedback or suggestion? Click here.




ElementValue
Catalog49060
NameKL-BETA B
Epoch Orbit637
Epoch Day262.05088605
Epoch Year2021
RAAN48.2716
Inclination88.9936
Eccentricity0.0009319
Argument of Perigee105.6623
Mean Anonmoly254.5583
Mean Motion13.97326536
Decay Rate6E-08
L11 49060U 21070B 21262.05088605 .00000006 00000-0 -53965-5 0 9994
L22 49060 88.9936 48.2716 0009319 105.6623 254.5583 13.97326536 6370

Live tracking and technical data element details for KL-BETA B (NORAD 49060). KL-BETA B can be tracked NOW for your location showing map with azimuth and elevation plus other details from your city location.

Track the satellite on the map from your city or location and see movement details for azimuth, elevation, latitude, longitude, range, height, and movement on the map or in text.







IsCatalogInMostPopularTable: catalog: 49060, numindb: 20
Update: records affected: 1



GetName: 49060 KL-BETA B

Hit Count: updated at: Fri, 24 Sep 2021 17:47:25 GMT